Location: Bennemühlen
(52.5740°N, 9.7135°E)
Time: 07:26:19
(UTC+00:00)

Vanguard 2 Rocket - Pass Details

Date: 20 February 2026
Orbit: 553 x 3286 km, 32.9° (Epoch: 7 March)

Event Time Altitude Azimuth Distance (km) Brightness Sun altitude
Rises 09:11:11 0° 197° (SSW) 7,146 12.0 19.5°
Reaches altitude 10° 09:18:12 10° 183° (S) 6,225 12.1 20.1°
Maximum altitude 09:29:51 19° 146° (SSE) 5,265 15.0 21.1°
Drops below altitude 10° 09:40:12 10° 109° (ESE) 5,504 11.8 22.0°
Sets 09:45:40 0° 94° (E) 6,098 11.6 22.4°
